Location: Il Ritiro
(43.4167°N, 13.1333°E)
Time: 01:36:54
(UTC+00:00)

VEP-3 - Pass Details

Date: 05 July 2020
Orbit: 1021 x 33722 km, 23.7° (Epoch: 11 August)

Event Time Altitude Azimuth Distance (km) Brightness Sun altitude
Rises 19:53:57 0° 234° (SW) 3,855 5.8 -9.8°
Reaches altitude 10° 19:57:25 10° 209° (SSW) 2,808 4.7 -10.2°
Maximum altitude 20:00:50 16° 169° (S) 2,687 4.3 -10.6°
Enters shadow 20:03:40 13° 142° (SE) 3,350 4.6 -11.0°
